Retour au catalogue

USA 97

ActifMilitaireGEO
NORAD 22915·PAYLOAD·🇺🇸 United States

Lancé Nov 28, 1993 depuis Cape Canaveral Space Force Station

Loading…

TLE

FraisSource: Space-Track

Époque: Sep 13, 2026, 21:02 UTC

1 22915U 93074A   26256.87656255  .00000006  00000-0  00000+0 0  9992
2 22915  13.8744  14.8131 0004808  17.3678 348.2633  0.98532566 25783

Suivez USA 97 en temps réel avec AllMySat

Download on the App Store